Lafayette, CO

1:16 PM MST on February 20, 2017 (GMT -0700)
Erie Municipal Airport

Weather History for KEIK - November, 2012

Change the Weather History Date:

Thursday, November 8, 2012

  Actual Average (KBJC) Record (KBJC)
Temperature  
Mean Temperature 43 °F -  
Max Temperature 56 °F 50 °F 80 °F (2006)
Min Temperature 30 °F 31 °F 17 °F (1990)
Degree Days  
Heating Degree Days 22    
Moisture  
Dew Point 28 °F    
Average Humidity 60    
Maximum Humidity 90    
Minimum Humidity 31    
Precipitation  
Precipitation 0.00 in - - ()
Sea Level Pressure  
Sea Level Pressure 29.92 in    
Wind  
Wind Speed 2 mph (ENE)    
Max Wind Speed 14 mph    
Max Gust Speed -    
Visibility 10 miles    
Events      
Averages and records for this station are not official NWS values.
T = Trace of Precipitation, MM = Missing Value Source: NWS Daily Summary

Daily Weather History Graph

Daily Weather History Graph

Search for Another Location

Airport or City:

Trip Planner

Search our weather history database for the weather conditions in past years. The results will help you decide how hot, cold, wet, or windy it might be!

Date:

Astronomy

Nov. 08, 2012 Rise Set
Actual Time 6:37 AM MST 4:49 PM MST
Civil Twilight 6:09 AM MST 5:18 PM MST
Nautical Twilight 5:36 AM MST 5:50 PM MST
Astronomical Twilight 5:05 AM MST 6:22 PM MST
Moon 12:35 AM MST (11/8) 1:31 PM MST (11/8)
Length of Visible Light 11h 08m
Length of Day
10h 11m
Waning Crescent, 32% of the Moon is Illuminated
Nov 8
Waning Crescent
Nov 13
New
Nov 20
First Quarter
Nov 28
Full
Dec 6
Last Quarter

Hourly Weather History & Observations

Time (MST) Temp. Windchill Dew Point Humidity Pressure Visibility Wind Dir Wind Speed Gust Speed Precip Events Conditions
12:15 AM 36.5 °F - 29.1 °F 75% 29.94 in 10.0 mi Calm Calm - N/A   Clear
12:35 AM 37.6 °F 35.1 °F 28.0 °F 68% 29.94 in 10.0 mi SW 3.5 mph - N/A   Clear
12:55 AM 37.0 °F - 27.7 °F 69% 29.94 in 10.0 mi Calm Calm - N/A   Clear
1:15 AM 37.0 °F 33.3 °F 26.6 °F 66% 29.93 in 10.0 mi SW 4.6 mph - N/A   Clear
1:35 AM 35.4 °F - 26.8 °F 71% 29.93 in 10.0 mi Calm Calm - N/A   Clear
1:55 AM 37.6 °F - 26.4 °F 64% 29.93 in 10.0 mi Calm Calm - N/A   Clear
2:15 AM 36.1 °F - 26.6 °F 68% 29.93 in 10.0 mi Calm Calm - N/A   Clear
2:35 AM 35.1 °F - 26.2 °F 70% 29.93 in 10.0 mi Calm Calm - N/A   Clear
2:55 AM 34.3 °F 31.4 °F 26.8 °F 74% 29.92 in 10.0 mi SSE 3.5 mph - N/A   Clear
3:15 AM 35.8 °F 33.0 °F 27.0 °F 70% 29.93 in 10.0 mi South 3.5 mph - N/A   Clear
3:35 AM 32.2 °F 28.9 °F 26.4 °F 79% 29.93 in 10.0 mi WSW 3.5 mph - N/A   Clear
3:55 AM 36.0 °F - 25.9 °F 67% 29.93 in 10.0 mi Calm Calm - N/A   Clear
4:15 AM 32.5 °F - 26.2 °F 78% 29.93 in 10.0 mi Calm Calm - N/A   Clear
4:35 AM 34.5 °F - 26.2 °F 72% 29.94 in 10.0 mi Calm Calm - N/A   Clear
4:55 AM 35.2 °F - 25.7 °F 68% 29.94 in 10.0 mi Calm Calm - N/A   Clear
5:15 AM 34.0 °F - 26.6 °F 74% 29.94 in 10.0 mi Calm Calm - N/A   Clear
5:35 AM 34.3 °F - 25.9 °F 71% 29.93 in 10.0 mi Calm Calm - N/A   Clear
5:55 AM 36.5 °F - 25.5 °F 64% 29.93 in 10.0 mi Calm Calm - N/A   Clear
6:15 AM 40.5 °F 36.5 °F 24.6 °F 53% 29.94 in 10.0 mi SSW 5.8 mph - N/A   Clear
6:35 AM 40.5 °F 36.5 °F 25.2 °F 54% 29.94 in 10.0 mi South 5.8 mph - N/A   Clear
6:55 AM 42.6 °F 38.4 °F 24.4 °F 49% 29.95 in 10.0 mi SSW 6.9 mph - N/A   Clear
7:15 AM 45.5 °F 40.8 °F 23.4 °F 42% 29.95 in 10.0 mi SSW 9.2 mph - N/A   Clear
7:35 AM 48.7 °F - 20.7 °F 33% 29.96 in 10.0 mi South 6.9 mph - N/A   Clear
7:55 AM 50.0 °F - 20.3 °F 31% 29.98 in 10.0 mi NNW 5.8 mph - N/A   Clear
8:15 AM 44.2 °F 38.4 °F 29.8 °F 57% 30.00 in 10.0 mi NNE 11.5 mph - N/A   Clear
8:35 AM 42.6 °F 39.0 °F 28.8 °F 58% 30.01 in 10.0 mi NE 5.8 mph - N/A   Clear
8:55 AM 47.7 °F - 28.4 °F 47% 30.02 in 10.0 mi North 6.9 mph - N/A   Clear
9:15 AM 50.9 °F - 27.3 °F 40% 30.03 in 10.0 mi NNE 13.8 mph - N/A   Clear
9:35 AM 51.1 °F - 28.2 °F 41% 30.04 in 10.0 mi NNE 6.9 mph - N/A   Clear
9:55 AM 51.3 °F - 28.4 °F 41% 30.03 in 10.0 mi North 11.5 mph - N/A   Clear
10:15 AM 51.1 °F - 28.8 °F 42% 30.02 in 10.0 mi NNE 9.2 mph - N/A   Clear
10:35 AM 51.4 °F - 29.1 °F 42% 30.02 in 10.0 mi NNE 8.1 mph - N/A   Clear
10:55 AM 52.3 °F - 28.6 °F 40% 30.01 in 10.0 mi NE 9.2 mph - N/A   Clear
11:15 AM 52.5 °F - 29.5 °F 41% 29.99 in 10.0 mi NNE 6.9 mph - N/A   Clear
11:35 AM 52.9 °F - 29.5 °F 41% 29.97 in 10.0 mi ENE 5.8 mph - N/A   Clear
11:55 AM 51.8 °F - 29.1 °F 42% 29.97 in 10.0 mi Calm Calm - N/A   Clear
12:15 PM 52.5 °F - 29.7 °F 42% 29.94 in 10.0 mi NE 3.5 mph - N/A   Clear
12:35 PM 52.7 °F - 30.2 °F 42% 29.94 in 10.0 mi Calm Calm - N/A   Clear
12:55 PM 52.9 °F - 30.0 °F 42% 29.93 in 10.0 mi Calm Calm - N/A   Clear
1:15 PM 54.1 °F - 30.4 °F 40% 29.92 in 10.0 mi ENE 3.5 mph - N/A   Clear
1:35 PM 56.3 °F - 28.4 °F 34% 29.90 in 10.0 mi Calm Calm - N/A   Clear
1:55 PM 55.2 °F - 29.1 °F 37% 29.90 in 10.0 mi Calm Calm - N/A   Clear
2:15 PM 55.4 °F - 29.5 °F 37% 29.90 in 10.0 mi ENE 3.5 mph - N/A   Clear
2:35 PM 55.8 °F - 29.8 °F 37% 29.89 in 10.0 mi SE 3.5 mph - N/A   Clear
2:55 PM 56.7 °F - 29.1 °F 35% 29.89 in 10.0 mi ENE 3.5 mph - N/A   Clear
3:15 PM 56.1 °F - 29.3 °F 36% 29.88 in 10.0 mi Calm Calm - N/A   Clear
3:35 PM 56.1 °F - 29.5 °F 36% 29.88 in 10.0 mi ENE 3.5 mph - N/A   Clear
3:55 PM 55.6 °F - 30.2 °F 38% 29.88 in 10.0 mi NE 3.5 mph - N/A   Clear
4:15 PM 54.5 °F - 30.9 °F 41% 29.88 in 10.0 mi Calm Calm - N/A   Clear
4:35 PM 53.1 °F - 31.5 °F 44% 29.88 in 10.0 mi East 3.5 mph - N/A   Clear
4:55 PM 47.8 °F - 31.6 °F 53% 29.88 in 10.0 mi Calm Calm - N/A   Clear
5:15 PM 47.3 °F - 31.5 °F 54% 29.88 in 10.0 mi ENE 3.5 mph - N/A   Clear
5:35 PM 44.6 °F - 31.5 °F 60% 29.88 in 10.0 mi Calm Calm - N/A   Clear
5:55 PM 43.7 °F - 31.1 °F 61% 29.88 in 10.0 mi Calm Calm - N/A   Clear
6:15 PM 41.0 °F - 31.1 °F 68% 29.89 in 10.0 mi Calm Calm - N/A   Clear
6:35 PM 39.7 °F - 30.7 °F 70% 29.89 in 7.0 mi Calm Calm - N/A   Clear
6:55 PM 40.1 °F - 31.1 °F 70% 29.89 in 10.0 mi Calm Calm - N/A   Clear
7:15 PM 38.8 °F 36.5 °F 31.1 °F 74% 29.88 in 10.0 mi SSW 3.5 mph - N/A   Clear
7:35 PM 36.7 °F - 30.9 °F 80% 29.87 in 10.0 mi Calm Calm - N/A   Clear
7:55 PM 36.5 °F - 30.4 °F 78% 29.87 in 10.0 mi Calm Calm - N/A   Clear
8:15 PM 37.8 °F - 30.9 °F 76% 29.86 in 10.0 mi Calm Calm - N/A   Clear
8:35 PM 34.7 °F - 30.9 °F 86% 29.86 in 10.0 mi Calm Calm - N/A   Clear
8:55 PM 34.2 °F - 30.2 °F 85% 29.86 in 10.0 mi Calm Calm - N/A   Clear
9:15 PM 32.7 °F - 29.7 °F 88% 29.86 in 10.0 mi Calm Calm - N/A   Clear
9:35 PM 33.3 °F - 29.7 °F 87% 29.85 in 10.0 mi Calm Calm - N/A   Clear
9:55 PM 33.6 °F - 29.8 °F 86% 29.85 in 10.0 mi Calm Calm - N/A   Clear
10:15 PM 32.4 °F - 29.5 °F 89% 29.84 in 10.0 mi Calm Calm - N/A   Clear
10:35 PM 30.7 °F - 28.2 °F 90% 29.84 in 10.0 mi Calm Calm - N/A   Clear
10:55 PM 31.6 °F - 29.1 °F 90% 29.83 in 10.0 mi Calm Calm - N/A   Clear
11:15 PM 31.8 °F - 28.9 °F 89% 29.83 in 10.0 mi Calm Calm - N/A   Clear
11:35 PM 30.9 °F - 28.2 °F 90% 29.82 in 10.0 mi Calm Calm - N/A   Clear
11:55 PM 31.8 °F 28.5 °F 29.1 °F 90% 29.82 in 10.0 mi SW 3.5 mph - N/A   Clear